Theta_e
328 325 322 316 306 300 298 300 306 305 307 312 315 313 314 316 314 308 332 337 339 339 344 347 347 349 348 347 347 347 348 347 344 342 341 339 337 336 336 335 337 335 336 336 336 337 336 338 338
322 321 317 309 301 295 296 300 303 307 312 316 314 315 314 315 325 326 331 338 340 340 344 346 344 348 348 347 347 346 346 344 343 342 340 339 337 337 335 335 336 335 335 335 336 336 336 336 337
318 318 312 305 297 296 295 298 304 309 314 309 314 317 317 319 326 328 335 340 340 340 344 345 344 347 348 347 347 346 346 345 343 340 339 337 336 336 336 336 335 336 335 335 334 335 335 335 335
315 315 307 300 297 300 299 300 306 310 310 312 315 314 321 327 329 333 339 340 338 340 343 342 344 347 347 347 347 346 346 345 343 341 340 338 337 338 338 336 338 334 334 334 334 334 333 333 333
314 309 301 297 297 300 301 304 308 307 307 310 312 312 318 328 334 338 338 338 336 339 342 343 342 345 345 345 344 344 345 344 342 343 341 340 339 338 338 337 337 334 333 333 333 333 332 333 332
310 306 297 295 297 301 305 307 307 306 306 310 311 315 319 331 333 334 338 337 338 338 341 342 337 339 342 343 342 342 343 343 341 341 341 340 339 336 338 335 335 335 333 333 332 331 331 331 330
308 303 298 296 297 301 305 307 305 305 306 309 314 312 318 325 334 335 336 337 337 338 340 341 342 339 335 338 339 340 341 340 340 339 339 337 337 336 335 336 337 335 334 333 332 330 330 329 329
307 305 298 299 297 299 305 306 308 307 306 314 317 308 313 324 333 335 335 336 336 337 338 339 340 341 341 341 333 334 336 337 337 336 333 331 332 332 331 331 334 333 335 333 332 331 330 329 330
309 302 299 301 298 300 304 305 306 310 310 312 315 314 319 331 332 332 333 333 333 334 336 337 337 338 339 340 335 331 331 332 332 331 328 327 331 331 330 327 329 333 332 334 334 333 331 331 328
300 298 301 305 303 302 304 305 305 307 309 311 315 321 327 328 329 327 329 328 330 331 332 336 336 336 336 336 336 335 335 337 336 335 333 331 330 329 329 324 324 328 329 332 333 333 330 327 329
300 294 299 303 308 308 304 304 306 306 306 309 312 317 323 326 327 327 328 330 331 331 333 334 334 334 334 335 333 333 333 333 334 334 332 331 328 328 328 328 327 328 322 328 327 327 327 326 327
297 300 300 302 308 308 303 306 305 306 308 312 316 322 324 324 325 326 327 328 330 331 332 333 334 333 332 334 332 331 331 331 330 330 330 330 328 326 325 325 326 325 326 326 326 325 325 324 323
298 298 300 301 305 307 307 305 305 305 309 313 318 322 324 325 327 328 330 330 330 329 331 332 333 332 332 332 332 331 330 330 330 329 328 329 328 326 325 325 324 325 325 324 324 324 324 323 323
297 300 299 300 300 304 304 304 305 308 310 315 319 320 322 325 327 328 328 329 329 331 331 333 332 333 332 332 331 330 330 330 329 329 328 327 328 328 327 326 325 325 325 325 325 324 323 323 322
298 296 297 296 298 299 302 298 300 307 309 313 317 319 320 323 324 326 329 330 330 331 332 332 333 333 332 332 331 331 331 330 329 328 328 328 326 326 326 326 325 325 325 324 324 323 322 322 321
294 293 288 293 298 299 298 290 298 304 308 308 314 316 319 321 323 326 327 329 330 331 331 332 333 332 332 333 332 332 332 331 330 329 328 327 327 327 326 325 324 325 325 324 323 323 322 321 320
290 283 285 289 296 297 296 292 298 300 305 306 309 314 316 318 320 323 325 327 328 330 331 331 333 332 332 333 333 333 332 332 331 331 330 329 327 327 326 325 326 325 323 322 321 320 319 319 320
283 282 285 286 291 294 293 293 296 297 300 303 305 309 313 315 319 323 323 326 327 328 330 331 331 333 333 333 333 332 331 332 331 331 331 331 330 328 327 328 327 325 324 323 322 321 319 319 319
288 286 284 287 291 292 290 291 296 298 295 296 297 300 304 309 317 316 319 322 324 326 326 328 329 330 331 330 329 328 328 330 330 331 331 330 330 329 328 328 328 326 325 324 324 322 321 319 319
288 286 285 287 291 290 286 286 290 292 296 297 296 296 298 299 301 303 305 306 315 322 324 326 327 329 330 331 331 330 330 329 332 331 330 331 330 329 329 329 329 328 326 325 324 322 320 321 319
288 284 283 284 287 287 283 283 286 290 292 296 298 298 297 298 300 301 302 302 304 309 318 323 325 328 330 331 328 326 326 326 327 328 328 329 331 330 330 330 330 329 328 326 326 325 322 322 322
285 289 287 287 285 280 283 277 281 285 287 290 294 295 298 300 300 301 302 301 302 303 306 316 322 325 328 330 328 327 327 326 327 327 330 329 329 329 329 330 330 330 328 327 327 326 325 323 321
285 291 290 289 285 284 280 278 280 282 283 285 288 292 295 298 300 301 301 302 301 301 302 305 313 321 326 328 329 327 328 328 325 325 326 326 326 328 328 329 329 329 329 329 327 326 325 325 323
290 288 287 286 284 277 279 279 278 282 284 286 288 289 291 294 295 296 297 297 299 299 300 303 306 313 322 326 327 327 326 325 323 322 323 323 324 325 326 327 328 329 328 327 327 326 325 324 324
286 283 277 275 273 272 277 278 282 283 286 287 289 289 290 290 289 290 290 291 294 297 300 302 304 305 310 319 324 325 325 323 322 322 321 318 318 316 321 323 323 322 322 321 320 320 319 318 319
284 282 276 271 271 273 279 276 280 286 288 289 289 290 291 291 290 290 291 292 293 297 302 303 303 303 305 306 307 308 310 311 311 312 313 315 314 312 313 313 312 312 312 311 311 311 309 309 307
284 281 284 278 275 273 276 279 283 285 287 288 288 289 290 291 291 290 291 295 296 299 301 301 301 301 302 301 300 301 302 303 304 304 307 307 305 304 305 306 305 304 304 305 304 304 301 302 301
287 288 280 280 267 269 274 276 277 282 284 285 286 287 288 290 292 292 295 296 296 297 297 298 298 297 297 297 297 297 297 298 299 299 299 299 299 300 301 301 300 299 299 300 298 297 297 297 296
285 283 284 282 277 272 270 274 281 283 284 284 286 288 287 291 292 294 294 293 292 292 293 293 293 293 292 293 293 293 293 294 294 294 295 295 296 297 297 296 295 295 294 295 295 294 293 292 291
287 284 285 279 276 277 276 276 284 284 285 285 287 289 289 291 291 292 292 292 291 291 291 291 290 291 290 290 290 290 290 290 290 291 291 292 292 293 293 292 292 292 291 292 291 290 291 289 288
Wind_Speed
5 4 1 3 3 4 2 4 2 3 3 1 4 4 5 2 4 2 1 6 15 15 12 13 17 15 16 15 14 12 14 15 15 13 13 13 14 14 13 13 11 13 13 14 13 13 13 14 14
1 3 3 2 4 3 3 3 7 6 4 7 5 3 2 2 2 6 10 7 16 14 11 12 12 15 15 14 13 13 13 13 13 12 12 11 13 14 12 12 11 13 13 13 13 12 13 14 14
4 2 3 4 3 4 4 5 6 4 7 2 4 2 4 5 1 12 3 15 15 13 11 11 13 16 15 14 13 12 12 12 12 12 12 12 12 11 11 13 11 11 12 11 11 12 12 12 13
2 3 4 3 4 4 4 5 6 8 2 1 3 4 1 2 8 7 14 16 15 12 11 12 14 15 14 13 13 12 12 12 12 11 11 13 12 12 9 7 13 12 10 10 10 10 10 10 11
3 3 3 1 4 2 3 3 7 7 5 4 3 4 2 1 4 13 17 15 15 12 10 11 13 14 13 12 11 10 11 11 11 10 13 10 11 11 9 8 10 10 11 9 8 8 8 9 9
3 3 3 3 4 3 2 4 5 4 5 4 4 6 3 3 11 12 15 15 14 14 10 9 9 11 12 12 12 10 9 9 10 8 9 12 9 9 9 9 9 9 8 7 7 7 7 7 7
5 4 4 4 3 2 4 7 5 5 6 5 6 6 2 5 9 11 14 12 12 11 11 8 8 9 10 10 10 10 10 10 9 9 8 9 8 7 6 9 9 8 9 8 7 5 5 5 6
3 4 5 4 5 5 6 6 4 5 5 3 4 5 4 6 12 10 12 11 11 11 11 10 9 8 8 8 8 9 9 9 9 9 9 8 8 7 6 5 3 6 7 7 7 4 3 3 4
2 4 4 6 7 5 4 6 2 2 5 2 5 3 0 17 15 12 9 8 10 9 11 10 10 9 8 8 7 7 8 8 8 8 8 7 4 4 5 4 3 2 5 6 7 6 4 1 2
3 4 8 5 5 5 7 5 9 5 4 2 2 3 8 17 17 18 13 13 11 13 12 11 11 10 9 6 7 7 5 6 6 6 7 5 5 4 5 3 2 2 1 1 3 5 4 2 1
3 6 4 4 3 4 6 3 5 8 3 7 10 7 14 14 16 14 13 14 15 12 9 10 10 10 10 8 6 4 4 4 5 7 6 5 4 3 3 2 2 2 1 2 1 1 1 2 2
3 5 4 3 3 4 6 5 5 5 7 3 7 11 14 17 18 18 16 15 14 14 11 11 11 10 10 7 7 7 6 5 5 6 7 5 4 4 4 3 3 3 3 4 3 3 3 4 4
4 4 5 3 4 4 6 2 2 7 4 2 9 13 15 15 16 15 14 13 14 15 13 13 13 11 10 9 7 6 7 7 7 6 7 6 6 6 5 4 4 4 3 4 4 4 3 4 5
4 3 2 4 5 4 6 2 2 3 5 4 10 13 13 15 15 11 12 14 14 14 15 13 13 12 10 9 9 7 7 7 6 6 7 9 6 6 6 5 5 5 5 4 4 4 3 4 4
2 3 4 4 4 4 4 0 7 1 4 7 8 9 10 12 10 16 14 14 14 11 12 13 14 13 12 12 10 8 7 7 7 7 9 10 8 8 7 6 5 6 5 5 4 5 4 4 4
6 4 4 3 6 4 5 5 10 6 7 8 7 6 9 10 11 10 9 10 10 11 12 11 10 13 13 12 9 8 8 7 7 7 7 10 10 10 8 6 6 6 5 5 4 4 4 4 4
3 5 5 4 8 3 4 5 10 7 9 9 8 8 7 7 7 8 9 10 10 12 11 12 13 14 14 11 8 9 9 8 8 7 8 9 10 10 8 7 7 7 5 5 4 4 4 4 5
8 6 4 7 5 4 5 8 7 4 7 11 8 7 9 10 17 10 9 8 9 10 10 11 10 12 12 8 8 6 6 7 7 8 8 10 9 10 9 7 7 6 4 4 4 5 4 4 4
6 5 5 3 1 4 5 5 14 3 3 7 7 7 10 12 8 6 7 9 9 8 10 12 12 12 9 6 7 6 8 9 7 8 10 10 9 10 10 7 7 6 7 7 7 4 6 4 3
4 4 3 1 1 3 1 8 12 5 7 8 10 9 10 6 6 8 9 8 10 11 13 11 12 12 12 9 6 4 5 4 6 7 8 10 10 10 9 9 8 9 6 7 7 6 3 3 5
4 6 4 3 1 3 3 7 8 7 5 6 8 8 6 12 14 10 9 11 10 12 13 13 14 14 13 13 6 4 3 2 4 6 6 10 11 10 11 10 8 8 7 7 8 9 8 5 4
8 8 6 5 3 3 3 9 6 8 7 5 9 8 14 14 12 12 12 9 11 13 8 11 12 14 13 14 11 13 10 9 7 6 5 6 9 10 10 10 10 9 7 8 7 6 5 4 5
5 6 8 4 4 4 1 1 7 2 6 8 10 13 13 15 16 18 14 13 7 7 8 9 8 10 11 13 14 11 10 8 4 4 6 6 6 8 9 10 9 9 7 9 8 6 7 4 3
9 8 7 5 3 4 7 6 5 6 6 4 5 8 11 9 7 9 9 7 9 6 7 7 8 10 10 13 14 15 15 10 7 5 6 4 5 6 8 8 8 8 7 6 5 5 7 6 6
3 7 3 2 0 8 2 5 12 6 5 5 7 8 7 6 6 8 8 7 9 8 7 6 8 8 8 10 12 13 13 10 11 8 6 6 4 4 7 5 4 3 3 4 4 4 4 4 3
8 8 7 8 7 4 1 9 7 5 7 8 8 8 7 6 7 9 9 7 7 7 7 7 7 6 7 7 6 4 5 3 3 4 4 4 5 5 5 4 4 4 5 4 4 4 4 4 4
6 7 6 6 3 3 5 7 8 4 8 10 7 3 7 7 8 8 8 5 5 5 5 6 5 4 4 5 5 4 4 4 4 4 3 3 4 5 6 7 7 6 5 6 6 5 5 6 6
8 7 3 2 5 4 5 4 5 4 7 7 9 9 8 7 7 7 5 5 4 3 4 5 5 4 3 4 4 3 4 4 4 4 5 5 5 6 8 8 7 7 6 7 7 6 6 7 4
4 5 2 5 5 6 2 6 7 4 3 4 5 5 6 6 5 5 4 4 5 4 5 4 4 4 3 3 3 4 4 4 4 4 5 5 5 6 7 8 8 7 7 6 8 7 7 8 7
1 5 5 6 5 2 2 6 4 4 5 1 3 5 5 4 5 4 4 4 4 3 4 3 2 4 3 3 4 5 4 4 4 4 4 4 6 5 6 7 8 7 7 6 8 8 8 9 8
Wind_Direction
344 123 109 49 69 67 181 222 141 148 158 185 123 148 187 98 165 203 42 156 138 150 159 156 148 150 140 134 133 133 134 133 131 130 126 122 117 111 114 112 102 103 112 111 104 92 84 72 62
334 124 38 82 96 100 249 201 183 175 145 132 102 113 126 143 93 120 130 153 147 148 150 145 143 139 138 138 141 142 139 137 137 135 129 127 123 124 117 112 114 113 115 116 110 100 85 76 69
138 44 92 99 116 180 201 204 174 143 144 157 109 33 141 160 131 155 149 146 144 149 152 153 150 142 144 149 150 148 143 141 141 141 139 132 131 135 124 125 114 108 117 113 110 98 89 83 78
132 23 42 104 210 245 200 182 166 126 224 119 127 115 86 278 163 173 144 146 145 152 157 161 149 143 150 152 154 155 149 149 147 144 150 138 133 124 129 132 129 119 109 109 106 98 92 86 83
27 65 75 112 257 247 251 182 155 147 143 151 165 180 140 87 129 143 147 149 151 153 156 159 151 148 155 156 157 156 163 159 156 161 156 144 136 135 133 109 103 119 124 109 105 98 90 85 78
58 103 82 209 247 265 241 171 146 138 150 151 116 143 162 127 144 156 153 155 156 156 156 159 153 152 156 162 160 162 167 159 142 131 137 148 142 152 148 136 132 128 128 117 111 98 88 88 81
136 108 202 178 244 282 208 146 175 159 147 217 147 138 152 185 169 156 156 148 149 152 156 157 162 160 158 164 160 161 162 152 148 148 128 130 128 117 154 145 142 143 129 132 123 108 85 67 63
115 98 136 211 188 238 174 171 163 160 209 76 162 179 193 183 158 147 148 146 151 157 162 163 163 170 173 175 169 166 165 161 160 155 148 139 143 134 116 136 149 181 154 162 157 144 121 68 41
131 77 183 206 161 217 156 173 149 135 121 214 189 143 314 138 148 143 139 149 166 172 174 169 170 175 176 175 178 175 174 170 165 163 163 161 164 167 162 160 170 191 188 160 164 174 183 182 30
114 145 215 207 188 189 183 180 159 143 128 225 189 67 125 148 158 165 169 174 180 184 185 182 177 178 175 176 173 179 185 191 184 179 178 172 176 179 182 190 226 216 143 201 203 192 199 214 268
197 199 207 237 206 143 171 214 178 128 197 207 198 153 155 162 169 175 182 185 187 184 183 184 183 181 179 180 174 184 183 183 186 187 186 185 179 183 186 196 218 223 203 220 228 261 242 259 270
222 242 184 193 171 137 162 135 187 198 203 166 186 153 164 174 181 184 188 189 181 191 190 189 190 183 187 183 184 182 185 187 189 191 190 186 188 192 195 202 203 214 217 225 225 230 247 260 267
193 245 193 192 176 147 130 154 223 235 243 56 136 153 176 184 187 189 190 193 193 194 192 198 192 189 190 191 191 191 194 192 196 193 195 190 197 206 202 212 215 219 212 225 228 234 247 264 274
229 215 291 217 199 173 143 137 103 255 157 133 157 179 181 190 189 179 182 189 195 197 198 189 190 193 187 195 195 196 198 200 197 199 201 201 202 206 211 215 220 228 221 227 230 231 241 261 272
162 155 323 236 220 212 136 169 231 186 167 184 195 189 189 198 173 202 197 196 192 200 197 190 189 187 191 197 198 199 202 200 205 207 204 203 203 209 212 218 223 228 221 229 230 238 240 256 258
147 115 192 257 154 245 154 241 248 180 163 214 213 207 204 199 207 206 196 201 192 193 193 191 189 188 193 197 196 199 200 203 210 206 205 207 206 208 209 214 225 226 215 213 219 226 246 253 257
331 187 198 281 211 132 158 230 248 184 187 211 212 210 213 225 233 215 204 204 192 200 194 197 193 192 194 197 197 202 199 204 209 208 208 208 207 206 207 209 216 214 207 202 204 215 215 242 248
171 168 201 197 218 197 172 233 248 206 196 212 216 211 211 221 232 215 205 206 199 201 201 200 197 200 193 186 189 192 200 212 207 211 210 205 207 203 206 212 210 186 191 204 197 215 200 233 244
139 141 164 228 122 151 219 258 259 222 234 243 231 230 228 222 246 206 211 207 207 204 200 202 193 196 179 179 195 211 217 217 214 216 209 204 207 203 202 208 206 188 197 203 199 187 212 234 215
130 139 174 179 78 143 87 261 262 226 234 214 225 218 238 251 252 238 230 211 211 214 212 204 203 192 194 193 192 189 184 208 216 203 206 209 206 203 200 204 207 206 204 202 190 184 181 221 183
156 150 155 140 102 67 345 277 256 256 214 239 229 236 219 225 238 243 234 221 214 216 211 205 205 202 196 194 157 126 117 134 180 212 213 213 208 204 203 205 208 207 204 216 202 194 188 212 197
207 158 142 128 103 217 37 279 278 261 255 234 246 224 232 236 244 245 240 232 216 225 208 207 207 205 201 186 187 190 199 199 204 196 202 199 196 202 202 211 210 211 205 215 214 199 191 169 224
200 165 154 120 99 58 228 295 269 318 277 264 237 241 238 232 233 243 241 242 234 219 209 213 211 205 199 191 196 197 206 213 189 184 186 195 198 208 204 206 208 209 212 218 195 186 205 201 206
144 99 63 66 124 246 179 171 210 197 211 256 238 238 247 256 249 255 257 265 255 240 221 204 199 211 196 192 195 197 203 197 193 186 202 195 201 218 223 213 213 217 209 207 191 178 203 211 223
147 140 97 87 139 230 324 197 255 256 255 234 267 278 282 290 267 262 263 260 256 243 230 215 193 200 188 193 196 200 203 191 200 198 197 179 195 207 211 189 190 181 165 153 138 169 168 177 168
181 164 158 182 192 204 47 231 242 245 287 265 238 251 299 296 260 259 257 255 254 235 210 205 192 180 172 168 168 160 161 172 188 195 198 205 193 182 161 143 131 131 132 123 125 125 120 112 90
203 201 146 101 50 69 217 291 291 268 277 302 312 291 276 292 300 278 299 289 269 240 204 185 176 149 151 139 134 138 140 154 170 173 173 171 155 149 135 138 138 126 117 120 120 122 118 110 112
178 151 106 42 134 226 257 275 230 279 294 335 336 340 332 343 343 346 352 358 1 32 51 63 85 104 102 105 106 118 126 132 143 148 150 143 135 131 135 132 128 123 128 134 123 123 123 123 111
146 174 144 121 153 170 206 260 215 204 10 16 331 334 345 350 360 13 23 45 51 33 57 70 87 100 102 107 109 111 108 107 107 112 122 123 120 130 135 133 130 131 134 135 131 128 127 117 117
248 162 179 191 197 213 126 264 204 195 96 99 17 10 23 11 14 26 46 42 54 64 46 72 87 118 125 120 114 117 121 120 118 122 121 121 119 105 119 123 125 132 134 133 137 135 139 135 131